Flag for Germany Weather past 2 weeks in Haltern am See, North Rhine-Westphalia, Germany

Now
46 °F

Fog.


Feels Like: 46 °F
Forecast: 50 / 75 °F
Wind: 1 mph from Northeast

Location: Muenster / Osnabrueck


UV Index: 3 (Moderate)

Visibility: 8 mi


Pressure: 30.12 "Hg

Humidity: 96%

Dew point: 45 °F

Location of Haltern am SeeLocation

Historic Weather in Haltern am See

°F

Haltern am See temperature yesterday

Maximum temperature yesterday: 69 °F (at 3:00 PM)
Minimum temperature yesterday: 43 °F (at 5:00 AM)
Average temperature yesterday: 56 °F

Past Weeks' High & Low Weather Summary

 TemperatureHumidityPressure
High69 °F (Apr 20, 6:00 PM)99% (Apr 12, 6:00 AM)30.48 "Hg (Apr 12, 6:00 AM)
Low28 °F (Apr 16, 7:00 AM)30% (Apr 17, 4:00 PM)29.67 "Hg (Apr 21, 6:00 PM)
Average51 °F73%30.06 "Hg
* Reported Apr 9 4:00 AM — Apr 24 4:00 AM, Haltern am See, Weather by CustomWeather, © 2014

Note: Actual official high and low records may vary slightly from our data, if they occured in-between our weather recording intervals... More about our weather records

Advertising

Historic Weather Conditions — Data for Previous 24 hours

 ConditionsComfort  
Time TempWeatherWind HumidityBarometerVisibility
4:00 AM
Apr 24
48 °FOvercast.1 mph94%30.13 "Hg9 mi
3:00 AM47 °FOvercast.1 mph95%30.13 "Hg11 mi
2:00 AM48 °FClear.1 mph95%30.13 "Hg11 mi
1:00 AM51 °FClear.2 mph91%30.14 "Hg12 mi
12:00 AM50 °FClear.No wind90%30.14 "Hg12 mi
11:00 PM
Apr 23
52 °FClear.1 mph85%30.14 "Hg12 mi
10:00 PM53 °FPassing clouds.1 mph81%30.13 "Hg12 mi
9:00 PM59 °FPassing clouds.1 mph66%30.11 "Hg11 mi
8:00 PM63 °FScattered clouds.1 mph55%30.10 "Hg16 mi
7:00 PM66 °FPartly sunny.2 mph44%30.08 "Hg16 mi
6:00 PM64 °FThunderstorms. Overcast.6 mph52%30.10 "Hg12 mi
5:00 PM67 °FThunderstorms. Overcast.1 mph49%30.10 "Hg9 mi
4:00 PM67 °FPartly sunny.2 mph50%30.09 "Hg7 mi
3:00 PM69 °FOvercast.2 mph51%30.10 "Hg7 mi
2:00 PM65 °FOvercast.3 mph54%30.11 "Hg7 mi
1:00 PM66 °FOvercast.2 mph52%30.11 "Hg7 mi
12:00 PM65 °FOvercast.1 mph60%30.12 "Hg7 mi
11:00 AM61 °FOvercast.2 mph74%30.13 "Hg6 mi
10:00 AM58 °FFog.1 mph82%30.12 "Hg4 mi
9:00 AM54 °FFog.1 mph91%30.11 "Hg2 mi
8:00 AM50 °FFog.1 mph98%30.10 "Hg2 mi
7:00 AM46 °FFog.1 mph99%30.09 "Hg1 mi
6:00 AM44 °FFog.1 mph98%30.08 "Hg3 mi
5:00 AM43 °FFog.1 mph97%30.07 "Hg1 mi
Weather by CustomWeather, © 2014

See weather overview